Weather in Chichester

United Kingdom     50°50′12″N   0°45′51″E
temp.,
°C
wind,
m/s
gust,
m/s
humid.,
%
clouds,
%
prec.,
mm/h
press.,
hPa
HPBL,
m
20 january, wed
wed2000:00+10ssw162287100 1.1 998774
03:00+10sw162388100 1.0 995811
06:00+10ssw142183100 1.4 994769
09:00+10ssw162290100 1.4 992902
12:00+10ssw152283100 1.8 990909
15:00+10ssw142185100 0.1 987973
18:00+10s172383100 1.1 983963
21:00+10s18258491 0.4 9781077
21 january, thu
thu2100:00+7wsw14198095 4.3 9791432
03:00+7w14197133 0.1 9851457
06:00+8wsw14196917 0.1 9871695
09:00+8wsw12177143 0.1 9881471
12:00+9wsw13176972 0.6 9881502
15:00+8sw101375100 0.3 9851267
18:00+7w5778100 0.9 982694
21:00+6wnw81275100 0.0 984899
22 january, fri
fri2200:00+5w8127750 0.0 988775
03:00+6w912750 0.0 989894
06:00+5w811745 0.0 991810
09:00+6w697221 0.0 991739
12:00+7wsw686851 0.0 992923
15:00+7wsw576959 0.0 991881
18:00+6wsw347480 0.5 991578
21:00+5nne3485100 0.8 991273
23 january, sat
sat2300:00+4nnw4680100 0.9 992360
03:00+3nw467849 0.0 993335
06:00+3nw577937 0.0 994336
09:00+2n34850 0.0 996226
12:00+4nnw44720 0.0 998601
15:00+5nw346730 0.0 999779
18:00+4w456544 0.0 1000701
21:00+4wsw24639 0.0 999703
24 january, sun
sun2400:00+5s676654 0.3 997828
03:00+4sw5694100 4.9 995446
06:00+3wnw9128068 5.3 994835
09:00+3wnw1316800 0.0 9961125
12:00+4nw11157541 0.4 9971252
15:00+5wnw9146827 0.0 9991391
18:00+5wnw12187663 0.0 10001318
21:00+5wnw101482100 0.0 1001924